EN

Hourly Weather Borawskie

Today, 16 April, Friday

Time Temperature Precipitation Wind Pressure Humidity
00:00 +2°C° 0.1 mm 5 mps 746 mmHg 94%
01:00 +2°C° 0.1 mm 5 mps 746 mmHg 95%
02:00 +2°C° 0.1 mm 5 mps 746 mmHg 96%
03:00 +2°C° 0 mm 5 mps 746 mmHg 96%
04:00 +2°C° 0 mm 5 mps 745 mmHg 96%
05:00 +2°C° 0 mm 5 mps 745 mmHg 95%
06:00 +2°C° 0.1 mm 5 mps 745 mmHg 95%
07:00 +2°C° 0.1 mm 5 mps 745 mmHg 95%
08:00 +2°C° 0.1 mm 5 mps 745 mmHg 95%
09:00 +2°C° 0.4 mm 5 mps 745 mmHg 95%
10:00 +3°C° 0.4 mm 5 mps 745 mmHg 95%
11:00 +3°C° 0.4 mm 5 mps 745 mmHg 95%
12:00 +3°C° 0.6 mm 5 mps 745 mmHg 95%
13:00 +4°C° 0.6 mm 4 mps 745 mmHg 95%
14:00 +4°C° 0.6 mm 4 mps 745 mmHg 95%
15:00 +5°C° 0 mm 4 mps 745 mmHg 93%
16:00 +6°C° 0 mm 4 mps 745 mmHg 91%
17:00 +6°C° 0 mm 4 mps 745 mmHg 89%
18:00 +6°C° 0 mm 4 mps 746 mmHg 91%
19:00 +6°C° 0 mm 4 mps 746 mmHg 92%
20:00 +6°C° 0 mm 4 mps 746 mmHg 94%
21:00 +6°C° 0 mm 4 mps 746 mmHg 94%
22:00 +6°C° 0 mm 5 mps 746 mmHg 94%
23:00 +6°C° 0 mm 5 mps 746 mmHg 95%

Tomorrow, 17 April, Saturday

Time Temperature Precipitation Wind Pressure Humidity
00:00 +5°C° 0 mm 5 mps 746 mmHg 95%
01:00 +5°C° 0 mm 4 mps 746 mmHg 96%
02:00 +5°C° 0 mm 4 mps 747 mmHg 96%
03:00 +5°C° 0 mm 4 mps 747 mmHg 96%
04:00 +5°C° 0 mm 4 mps 747 mmHg 95%
05:00 +5°C° 0 mm 4 mps 747 mmHg 95%
06:00 +6°C° 0 mm 4 mps 747 mmHg 95%
07:00 +7°C° 0 mm 3 mps 747 mmHg 94%
08:00 +7°C° 0 mm 3 mps 748 mmHg 94%
09:00 +8°C° 0 mm 3 mps 748 mmHg 88%
10:00 +8°C° 0 mm 4 mps 748 mmHg 82%
11:00 +10°C° 0 mm 4 mps 748 mmHg 76%
12:00 +11°C° 0.1 mm 4 mps 748 mmHg 74%
13:00 +11°C° 0.1 mm 4 mps 748 mmHg 73%
14:00 +11°C° 0.1 mm 4 mps 748 mmHg 72%
15:00 +11°C° 0 mm 4 mps 748 mmHg 72%
16:00 +11°C° 0 mm 4 mps 748 mmHg 72%
17:00 +12°C° 0 mm 4 mps 749 mmHg 72%
18:00 +10°C° 0 mm 4 mps 749 mmHg 78%
19:00 +9°C° 0 mm 3 mps 749 mmHg 84%
20:00 +8°C° 0 mm 3 mps 749 mmHg 90%
21:00 +8°C° 0 mm 3 mps 749 mmHg 91%
22:00 +7°C° 0 mm 3 mps 749 mmHg 93%
23:00 +7°C° 0 mm 3 mps 749 mmHg 95%

Day after tomorrow, 18 April, Sunday

Time Temperature Precipitation Wind Pressure Humidity
00:00 +5°C° 0 mm 3 mps 749 mmHg 95%
01:00 +5°C° 0 mm 3 mps 749 mmHg 96%
02:00 +5°C° 0 mm 3 mps 749 mmHg 96%
03:00 +5°C° 0 mm 3 mps 749 mmHg 95%
04:00 +5°C° 0 mm 3 mps 749 mmHg 95%
05:00 +4°C° 0 mm 3 mps 749 mmHg 94%
06:00 +7°C° 0 mm 3 mps 749 mmHg 91%
07:00 +7°C° 0 mm 4 mps 749 mmHg 87%
08:00 +8°C° 0 mm 4 mps 749 mmHg 84%
09:00 +11°C° 0 mm 4 mps 748 mmHg 77%
10:00 +12°C° 0 mm 5 mps 748 mmHg 71%
11:00 +13°C° 0 mm 5 mps 748 mmHg 64%
12:00 +14°C° 0 mm 5 mps 748 mmHg 61%
13:00 +15°C° 0 mm 5 mps 748 mmHg 58%
14:00 +15°C° 0 mm 5 mps 748 mmHg 55%
15:00 +15°C° 0 mm 5 mps 748 mmHg 58%
16:00 +14°C° 0 mm 5 mps 748 mmHg 60%
17:00 +14°C° 0 mm 4 mps 748 mmHg 62%
18:00 +12°C° 0 mm 4 mps 748 mmHg 67%
19:00 +11°C° 0 mm 3 mps 749 mmHg 73%
20:00 +10°C° 0 mm 2 mps 749 mmHg 78%
21:00 +10°C° 0 mm 2 mps 749 mmHg 79%
22:00 +10°C° 0 mm 2 mps 749 mmHg 79%
23:00 +9°C° 0 mm 2 mps 749 mmHg 80%

19 April, Monday

Time Temperature Precipitation Wind Pressure Humidity
00:00 +9°C° 0 mm 2 mps 749 mmHg 80%
01:00 +9°C° 0 mm 2 mps 749 mmHg 80%
02:00 +8°C° 0 mm 2 mps 749 mmHg 81%
03:00 +8°C° 0 mm 3 mps 749 mmHg 79%
04:00 +8°C° 0 mm 3 mps 749 mmHg 78%
05:00 +7°C° 0 mm 4 mps 749 mmHg 77%
06:00 +7°C° 0 mm 4 mps 749 mmHg 75%
07:00 +7°C° 0 mm 4 mps 749 mmHg 73%
08:00 +7°C° 0 mm 4 mps 749 mmHg 71%
09:00 +8°C° 0 mm 4 mps 748 mmHg 67%
10:00 +10°C° 0 mm 4 mps 748 mmHg 64%
11:00 +11°C° 0 mm 4 mps 748 mmHg 61%
12:00 +11°C° 0.2 mm 4 mps 747 mmHg 62%
13:00 +11°C° 0.2 mm 4 mps 747 mmHg 63%
14:00 +10°C° 0.2 mm 5 mps 747 mmHg 64%
15:00 +9°C° 0.1 mm 5 mps 747 mmHg 66%
16:00 +9°C° 0.1 mm 5 mps 746 mmHg 67%
17:00 +9°C° 0.1 mm 5 mps 746 mmHg 68%
18:00 +8°C° 0 mm 4 mps 746 mmHg 73%
19:00 +7°C° 0 mm 4 mps 746 mmHg 78%
20:00 +7°C° 0 mm 3 mps 746 mmHg 83%
21:00 +5°C° 0 mm 3 mps 745 mmHg 85%
22:00 +5°C° 0 mm 3 mps 745 mmHg 86%
23:00 +5°C° 0 mm 3 mps 745 mmHg 88%

20 April, Tuesday

Time Temperature Precipitation Wind Pressure Humidity
00:00 +5°C° 0 mm 3 mps 744 mmHg 88%
01:00 +5°C° 0 mm 3 mps 744 mmHg 88%
02:00 +5°C° 0 mm 3 mps 744 mmHg 89%
03:00 +5°C° 0 mm 4 mps 743 mmHg 90%
04:00 +4°C° 0 mm 4 mps 743 mmHg 91%
05:00 +4°C° 0 mm 4 mps 743 mmHg 92%
06:00 +3°C° 0 mm 5 mps 742 mmHg 92%
07:00 +3°C° 0 mm 5 mps 742 mmHg 92%
08:00 +5°C° 0 mm 5 mps 742 mmHg 91%
09:00 +5°C° 0 mm 5 mps 742 mmHg 88%
10:00 +6°C° 0 mm 5 mps 741 mmHg 86%
11:00 +6°C° 0 mm 5 mps 741 mmHg 83%
12:00 +6°C° 0 mm 5 mps 741 mmHg 80%
13:00 +7°C° 0 mm 5 mps 740 mmHg 77%
14:00 +7°C° 0 mm 6 mps 740 mmHg 73%
15:00 +7°C° 0 mm 6 mps 739 mmHg 76%
16:00 +5°C° 0 mm 6 mps 739 mmHg 78%
17:00 +6°C° 0 mm 5 mps 738 mmHg 80%
18:00 +5°C° 0 mm 6 mps 738 mmHg 80%
19:00 +5°C° 0 mm 6 mps 738 mmHg 80%
20:00 +4°C° 0 mm 6 mps 737 mmHg 79%
21:00 +4°C° 0.1 mm 6 mps 736 mmHg 81%
22:00 +4°C° 0.1 mm 7 mps 736 mmHg 83%
23:00 +4°C° 0.1 mm 7 mps 735 mmHg 84%

21 April, Wednesday

Time Temperature Precipitation Wind Pressure Humidity
00:00 +3°C° 0.7 mm 7 mps 735 mmHg 87%
01:00 +3°C° 0.7 mm 7 mps 734 mmHg 89%
02:00 +3°C° 0.7 mm 7 mps 734 mmHg 91%
03:00 +3°C° 0.7 mm 7 mps 734 mmHg 92%
04:00 +3°C° 0.7 mm 7 mps 733 mmHg 93%
05:00 +2°C° 0.7 mm 7 mps 733 mmHg 94%
06:00 +2°C° 0.7 mm 7 mps 733 mmHg 94%
07:00 +2°C° 0.7 mm 7 mps 733 mmHg 95%
08:00 +2°C° 0.7 mm 7 mps 733 mmHg 95%
09:00 +2°C° 0.4 mm 7 mps 734 mmHg 95%
10:00 +2°C° 0.4 mm 7 mps 734 mmHg 95%
11:00 +1°C° 0.4 mm 8 mps 734 mmHg 94%
12:00 +1°C° 0.2 mm 8 mps 735 mmHg 93%
13:00 +2°C° 0.2 mm 8 mps 735 mmHg 92%
14:00 +2°C° 0.2 mm 8 mps 736 mmHg 91%
15:00 +4°C° 0.1 mm 7 mps 736 mmHg 86%
16:00 +4°C° 0.1 mm 7 mps 737 mmHg 81%
17:00 +5°C° 0.1 mm 7 mps 737 mmHg 76%
18:00 +4°C° 0 mm 6 mps 738 mmHg 77%
19:00 +4°C° 0 mm 6 mps 738 mmHg 77%
20:00 +3°C° 0 mm 5 mps 739 mmHg 78%
21:00 +4°C° 0 mm 4 mps 739 mmHg 81%
22:00 +3°C° 0 mm 4 mps 739 mmHg 83%
23:00 +3°C° 0 mm 4 mps 739 mmHg 86%
Show more

We Need Your Consent

Meteoprog and our Service Providers may store and access personal data such as cookies, device identifiers or other similar technologies on your device and process such data to personalise content and ads, as well as provide social media features and to analyse the traffic.

  • Store and/or access information on your device

    Cookies, device identifiers or other information can be stored or accessed on your device for the purposes indicated above.

  • Personalised ads and content, ad and content measurement, audience insights, and products development

    Ads and content can be personalised based on a profile. More data can be added to better personalise ads and content. Ad and content performance can be measured. Insights about the audience who saw the ads and content can be derived. Such data can be used to develop or improve user’s experience, systems and software.

By clicking ‘I Agree’ you will allow the use of indicated cookies, device identifiers, web beacons or other similar technologies. Your settings can be changed in the browser on your device.

For certain purposes, legitimate interests may be relied on, rather than consent. You can read more about this in our Privacy and Cookie Policy.